sat.trackr.live / text

‹ back to catalog

STARLINK-32396

NORAD 61633 · 2024-191N

PAYLOAD ACTIVE UNKNOWN

§ Identity

Operator
Country
US
Launch date
2024-10-23
Launch site
AFETR
Launch vehicle
Mass (kg)
RCS (m²)

Purposes: comms

External: N2YO · Heavens-Above · Gunter

§ Orbital elements

Epoch: 2026-09-20T23:47:48.192000Z

Period
94.27 min
Inclination
43.0003°
Eccentricity
0.0001152
Mean motion
15.27581021 rev/d
Perigee alt
482.3 km
Apogee alt
483.8 km
Semi-major
6,861.2 km
B*
4.5416e-5
RAAN
135.1472°
Arg perigee
268.8791°
Mean anomaly
91.1929°
Rev number
10,736

§ Raw data

STARLINK-323961 61633U 24191N   26263.99153000  .00000988  00000+0  45416-4 0  99902 61633  43.0003 135.1472 0001152 268.8791  91.1929 15.27581021107364

JSON: /api/v1/satellites/61633 · /tle

For live sub-satellite position, see the globe view (requires WebGL).

§ Visibility from observer

Set your observer location to see the next 7 days of passes ≥ 10°. The values pass through the URL so the page stays shareable.

No JS? Fill the form by hand. The geolocation button needs JavaScript.